Time,TemperatureF,DewpointF,PressureIn,WindDirection,WindDirectionDegrees,WindSpeedMPH,WindSpeedGustMPH,Humidity,HourlyPrecipIn,Conditions,Clouds,dailyrainin,SoftwareType,DateUTC
2013-05-04 00:02:00,53.0,45.0,30.19,East,84,3.0,6.0,74,0.00,,,0.00,,2013-05-04 04:02:00,
2013-05-04 00:12:00,53.0,45.0,30.19,East,84,3.0,6.0,74,0.00,,,0.00,,2013-05-04 04:12:00,
2013-05-04 00:23:00,53.0,45.0,30.19,NNE,22,3.0,8.0,74,0.00,,,0.00,,2013-05-04 04:23:00,
2013-05-04 00:33:00,53.0,45.0,30.19,East,96,4.0,13.0,75,0.00,,,0.00,,2013-05-04 04:33:00,
2013-05-04 00:42:00,53.0,45.0,30.19,East,96,4.0,13.0,75,0.00,,,0.00,,2013-05-04 04:42:00,
2013-05-04 00:53:00,53.0,45.0,30.19,North,356,3.0,11.0,75,0.00,,,0.00,,2013-05-04 04:53:00,
2013-05-04 01:02:00,52.0,45.0,30.18,West,273,4.0,11.0,77,0.00,,,0.00,,2013-05-04 05:02:00,
2013-05-04 01:12:00,52.0,45.0,30.18,West,273,4.0,11.0,77,0.00,,,0.00,,2013-05-04 05:12:00,
2013-05-04 01:22:00,52.0,45.0,30.18,ENE,57,3.0,10.0,78,0.00,,,0.00,,2013-05-04 05:22:00,
2013-05-04 01:32:00,51.0,45.0,30.17,ENE,75,2.0,9.0,80,0.00,,,0.00,,2013-05-04 05:32:00,
2013-05-04 01:43:00,51.0,45.0,30.17,ENE,75,2.0,9.0,80,0.00,,,0.00,,2013-05-04 05:43:00,
2013-05-04 01:52:00,51.0,46.0,30.17,North,5,2.0,11.0,82,0.00,,,0.00,,2013-05-04 05:52:00,
2013-05-04 02:01:00,51.0,46.0,30.16,WSW,248,2.0,7.0,83,0.00,,,0.00,,2013-05-04 06:01:00,
2013-05-04 02:11:00,51.0,46.0,30.16,WSW,248,2.0,7.0,83,0.00,,,0.00,,2013-05-04 06:11:00,
2013-05-04 02:22:00,50.0,46.0,30.16,East,99,4.0,9.0,85,0.00,,,0.00,,2013-05-04 06:22:00,
2013-05-04 02:32:00,50.0,46.0,30.16,ENE,65,3.0,11.0,86,0.00,,,0.00,,2013-05-04 06:32:00,
2013-05-04 02:42:00,50.0,46.0,30.16,ENE,65,3.0,11.0,86,0.00,,,0.00,,2013-05-04 06:42:00,
2013-05-04 02:52:00,50.0,46.0,30.16,ENE,78,2.0,8.0,87,0.00,,,0.00,,2013-05-04 06:52:00,
2013-05-04 03:01:00,50.0,46.0,30.15,NNE,20,4.0,8.0,87,0.00,,,0.00,,2013-05-04 07:01:00,
2013-05-04 03:11:00,50.0,46.0,30.15,NNE,20,4.0,8.0,87,0.00,,,0.00,,2013-05-04 07:11:00,
2013-05-04 03:21:00,50.0,46.0,30.15,ESE,110,3.0,7.0,87,0.00,,,0.00,,2013-05-04 07:21:00,
2013-05-04 03:32:00,50.0,47.0,30.15,SSE,147,3.0,6.0,88,0.00,,,0.00,,2013-05-04 07:32:00,
2013-05-04 03:42:00,50.0,47.0,30.15,SSE,147,3.0,6.0,88,0.00,,,0.00,,2013-05-04 07:42:00,
2013-05-04 03:52:00,50.0,47.0,30.14,North,11,4.0,11.0,88,0.00,,,0.00,,2013-05-04 07:52:00,
2013-05-04 04:02:00,50.0,47.0,30.15,NNE,25,3.0,10.0,88,0.00,,,0.00,,2013-05-04 08:02:00,
2013-05-04 04:11:00,50.0,47.0,30.15,NNE,25,3.0,10.0,88,0.00,,,0.00,,2013-05-04 08:11:00,
2013-05-04 04:21:00,51.0,48.0,30.14,NNE,27,2.0,12.0,88,0.00,,,0.00,,2013-05-04 08:21:00,
2013-05-04 04:32:00,51.0,48.0,30.14,West,269,3.0,8.0,88,0.00,,,0.00,,2013-05-04 08:32:00,
2013-05-04 04:42:00,51.0,48.0,30.14,West,269,3.0,8.0,88,0.00,,,0.00,,2013-05-04 08:42:00,
2013-05-04 04:52:00,50.0,47.0,30.14,East,90,3.0,12.0,88,0.00,,,0.00,,2013-05-04 08:52:00,
2013-05-04 05:02:00,50.0,47.0,30.14,ESE,117,4.0,10.0,88,0.00,,,0.00,,2013-05-04 09:02:00,
2013-05-04 05:11:00,50.0,47.0,30.14,ESE,117,4.0,10.0,88,0.00,,,0.00,,2013-05-04 09:11:00,
2013-05-04 05:22:00,50.0,47.0,30.14,ENE,74,3.0,11.0,88,0.00,,,0.00,,2013-05-04 09:22:00,
2013-05-04 05:32:00,50.0,47.0,30.14,ENE,58,3.0,8.0,89,0.00,,,0.00,,2013-05-04 09:32:00,
2013-05-04 05:42:00,50.0,47.0,30.14,ENE,58,3.0,8.0,89,0.00,,,0.00,,2013-05-04 09:42:00,
2013-05-04 05:53:00,50.0,47.0,30.14,NE,47,4.0,13.0,89,0.00,,,0.00,,2013-05-04 09:53:00,
2013-05-04 06:03:00,50.0,47.0,30.14,NE,47,4.0,13.0,89,0.00,,,0.00,,2013-05-04 10:03:00,
2013-05-04 06:12:00,50.0,47.0,30.14,NE,47,4.0,13.0,89,0.00,,,0.00,,2013-05-04 10:12:00,
2013-05-04 06:23:00,50.0,47.0,30.14,South,174,2.0,10.0,89,0.00,,,0.00,,2013-05-04 10:23:00,
2013-05-04 06:33:00,50.0,47.0,30.15,ENE,73,3.0,7.0,89,0.00,,,0.00,,2013-05-04 10:33:00,
2013-05-04 06:42:00,50.0,47.0,30.15,ENE,73,3.0,7.0,89,0.00,,,0.00,,2013-05-04 10:42:00,
2013-05-04 06:53:00,50.0,47.0,30.15,NNE,20,5.0,10.0,90,0.00,,,0.00,,2013-05-04 10:53:00,
2013-05-04 07:02:00,50.0,47.0,30.15,NNE,15,4.0,10.0,90,0.00,,,0.00,,2013-05-04 11:02:00,
2013-05-04 07:11:00,50.0,47.0,30.15,NNE,15,4.0,10.0,90,0.00,,,0.00,,2013-05-04 11:11:00,
2013-05-04 07:21:00,50.0,47.0,30.16,SW,219,3.0,8.0,90,0.00,,,0.00,,2013-05-04 11:21:00,
2013-05-04 07:32:00,50.0,47.0,30.16,NNE,15,3.0,8.0,90,0.00,,,0.00,,2013-05-04 11:32:00,
2013-05-04 07:45:00,50.0,47.0,30.16,NNE,15,3.0,8.0,90,0.00,,,0.00,,2013-05-04 11:45:00,
2013-05-04 08:03:00,50.0,47.0,30.16,NE,49,3.0,8.0,90,0.00,,,0.00,,2013-05-04 12:03:00,
2013-05-04 08:14:00,51.0,48.0,30.16,SE,136,3.0,8.0,90,0.00,,,0.00,,2013-05-04 12:14:00,
2013-05-04 08:30:00,51.0,48.0,30.17,SE,145,3.0,12.0,90,0.00,,,0.00,,2013-05-04 12:30:00,
2013-05-04 08:37:00,51.0,48.0,30.16,East,101,4.0,12.0,89,0.00,,,0.00,,2013-05-04 12:37:00,
2013-05-04 08:52:00,52.0,49.0,30.16,NNE,15,3.0,10.0,88,0.00,,,0.00,,2013-05-04 12:52:00,
2013-05-04 09:01:00,52.0,48.0,30.16,ESE,121,4.0,11.0,87,0.00,,,0.00,,2013-05-04 13:01:00,
2013-05-04 09:11:00,52.0,48.0,30.16,ESE,121,4.0,11.0,87,0.00,,,0.00,,2013-05-04 13:11:00,
2013-05-04 09:32:00,53.0,48.0,30.16,NE,46,7.0,13.0,84,0.00,,,0.00,,2013-05-04 13:32:00,
2013-05-04 09:42:00,53.0,48.0,30.16,NE,46,7.0,13.0,84,0.00,,,0.00,,2013-05-04 13:42:00,
2013-05-04 09:53:00,53.0,48.0,30.16,NE,46,7.0,13.0,84,0.00,,,0.00,,2013-05-04 13:53:00,
2013-05-04 10:02:00,54.0,49.0,30.16,NNE,32,4.0,12.0,83,0.00,,,0.00,,2013-05-04 14:02:00,
2013-05-04 10:11:00,54.0,49.0,30.16,NNE,32,4.0,12.0,83,0.00,,,0.00,,2013-05-04 14:11:00,
2013-05-04 10:21:00,54.0,49.0,30.16,NNE,32,4.0,12.0,83,0.00,,,0.00,,2013-05-04 14:21:00,
2013-05-04 10:32:00,55.0,49.0,30.16,ENE,75,5.0,12.0,81,0.00,,,0.00,,2013-05-04 14:32:00,
2013-05-04 10:42:00,55.0,49.0,30.16,ENE,75,5.0,12.0,81,0.00,,,0.00,,2013-05-04 14:42:00,
2013-05-04 10:52:00,55.0,49.0,30.16,NNE,27,6.0,11.0,80,0.00,,,0.00,,2013-05-04 14:52:00,
2013-05-04 11:02:00,57.0,50.0,30.15,ENE,75,6.0,12.0,78,0.00,,,0.00,,2013-05-04 15:02:00,
2013-05-04 11:12:00,57.0,50.0,30.15,ENE,75,6.0,12.0,78,0.00,,,0.00,,2013-05-04 15:12:00,
2013-05-04 11:22:00,58.0,51.0,30.15,ENE,60,3.0,8.0,77,0.00,,,0.00,,2013-05-04 15:22:00,
2013-05-04 11:33:00,58.0,51.0,30.15,NE,43,4.0,10.0,77,0.00,,,0.00,,2013-05-04 15:33:00,
2013-05-04 11:43:00,58.0,51.0,30.15,NE,43,4.0,10.0,77,0.00,,,0.00,,2013-05-04 15:43:00,
2013-05-04 11:53:00,58.0,50.0,30.16,ESE,121,3.0,8.0,76,0.00,,,0.00,,2013-05-04 15:53:00,
2013-05-04 12:03:00,59.0,50.0,30.15,NE,44,4.0,8.0,73,0.00,,,0.00,,2013-05-04 16:03:00,
2013-05-04 12:12:00,59.0,50.0,30.15,NE,44,4.0,8.0,73,0.00,,,0.00,,2013-05-04 16:12:00,
2013-05-04 12:22:00,59.0,50.0,30.14,NNE,25,7.0,12.0,72,0.00,,,0.00,,2013-05-04 16:22:00,
2013-05-04 12:33:00,61.0,51.0,30.14,NE,53,4.0,14.0,70,0.00,,,0.00,,2013-05-04 16:33:00,
2013-05-04 12:42:00,61.0,51.0,30.14,NE,53,4.0,14.0,70,0.00,,,0.00,,2013-05-04 16:42:00,
2013-05-04 12:52:00,62.0,51.0,30.13,NE,56,4.0,12.0,66,0.00,,,0.00,,2013-05-04 16:52:00,
2013-05-04 13:02:00,61.0,51.0,30.12,ESE,114,4.0,11.0,70,0.00,,,0.00,,2013-05-04 17:02:00,
2013-05-04 13:12:00,61.0,51.0,30.12,ESE,114,4.0,11.0,70,0.00,,,0.00,,2013-05-04 17:12:00,
2013-05-04 13:22:00,62.0,51.0,30.11,NE,46,5.0,14.0,67,0.00,,,0.00,,2013-05-04 17:22:00,
2013-05-04 13:32:00,63.0,52.0,30.11,North,11,3.0,9.0,68,0.00,,,0.00,,2013-05-04 17:32:00,
2013-05-04 13:42:00,63.0,52.0,30.11,North,11,3.0,9.0,68,0.00,,,0.00,,2013-05-04 17:42:00,
2013-05-04 13:52:00,63.0,52.0,30.11,ENE,57,5.0,11.0,67,0.00,,,0.00,,2013-05-04 17:52:00,
2013-05-04 14:01:00,64.0,53.0,30.10,ESE,105,4.0,10.0,67,0.00,,,0.00,,2013-05-04 18:01:00,
2013-05-04 14:12:00,64.0,53.0,30.10,ESE,105,4.0,10.0,67,0.00,,,0.00,,2013-05-04 18:12:00,
2013-05-04 14:22:00,63.0,52.0,30.10,NNE,23,4.0,13.0,67,0.00,,,0.00,,2013-05-04 18:22:00,
2013-05-04 14:32:00,64.0,52.0,30.10,NE,44,6.0,16.0,66,0.00,,,0.00,,2013-05-04 18:32:00,
2013-05-04 14:42:00,64.0,52.0,30.10,NE,44,6.0,16.0,66,0.00,,,0.00,,2013-05-04 18:42:00,
2013-05-04 14:52:00,64.0,52.0,30.09,East,98,7.0,14.0,66,0.00,,,0.00,,2013-05-04 18:52:00,
2013-05-04 15:01:00,66.0,53.0,30.09,NW,317,6.0,16.0,64,0.00,,,0.00,,2013-05-04 19:01:00,
2013-05-04 15:11:00,66.0,53.0,30.09,NW,317,6.0,16.0,64,0.00,,,0.00,,2013-05-04 19:11:00,
2013-05-04 15:21:00,66.0,53.0,30.09,NW,317,6.0,16.0,64,0.00,,,0.00,,2013-05-04 19:21:00,
2013-05-04 15:32:00,66.0,53.0,30.09,NW,317,6.0,16.0,64,0.00,,,0.00,,2013-05-04 19:32:00,
2013-05-04 15:42:00,66.0,53.0,30.09,NW,317,6.0,16.0,64,0.00,,,0.00,,2013-05-04 19:42:00,
2013-05-04 15:52:00,66.0,53.0,30.07,ESE,104,4.0,9.0,62,0.00,,,0.00,,2013-05-04 19:52:00,
2013-05-04 16:02:00,65.0,53.0,30.06,NE,39,5.0,13.0,65,0.00,,,0.00,,2013-05-04 20:02:00,
2013-05-04 16:11:00,65.0,53.0,30.06,NE,39,5.0,13.0,65,0.00,,,0.00,,2013-05-04 20:11:00,
2013-05-04 16:22:00,66.0,53.0,30.06,East,81,5.0,14.0,64,0.00,,,0.00,,2013-05-04 20:22:00,
2013-05-04 16:32:00,66.0,53.0,30.06,ENE,75,5.0,13.0,63,0.00,,,0.00,,2013-05-04 20:32:00,
2013-05-04 16:42:00,66.0,53.0,30.06,ENE,75,5.0,13.0,63,0.00,,,0.00,,2013-05-04 20:42:00,
2013-05-04 16:52:00,65.0,52.0,30.06,NNE,30,5.0,13.0,63,0.00,,,0.00,,2013-05-04 20:52:00,
2013-05-04 17:02:00,65.0,52.0,30.06,ESE,122,5.0,10.0,63,0.00,,,0.00,,2013-05-04 21:02:00,
2013-05-04 17:12:00,65.0,52.0,30.06,ESE,122,5.0,10.0,63,0.00,,,0.00,,2013-05-04 21:12:00,
2013-05-04 17:22:00,65.0,54.0,30.06,ESE,112,4.0,9.0,67,0.00,,,0.00,,2013-05-04 21:22:00,
2013-05-04 17:33:00,64.0,53.0,30.06,East,87,4.0,11.0,67,0.00,,,0.00,,2013-05-04 21:33:00,
2013-05-04 17:43:00,64.0,53.0,30.06,East,87,4.0,11.0,67,0.00,,,0.00,,2013-05-04 21:43:00,
2013-05-04 17:53:00,64.0,54.0,30.06,NE,56,5.0,15.0,69,0.00,,,0.00,,2013-05-04 21:53:00,
2013-05-04 18:03:00,63.0,53.0,30.06,North,11,4.0,10.0,71,0.00,,,0.00,,2013-05-04 22:03:00,
2013-05-04 18:12:00,63.0,53.0,30.06,North,11,4.0,10.0,71,0.00,,,0.00,,2013-05-04 22:12:00,
2013-05-04 18:22:00,63.0,54.0,30.06,NE,40,4.0,9.0,72,0.00,,,0.00,,2013-05-04 22:22:00,
2013-05-04 18:33:00,62.0,54.0,30.06,SE,134,5.0,12.0,74,0.00,,,0.00,,2013-05-04 22:33:00,
2013-05-04 18:42:00,62.0,54.0,30.06,SE,134,5.0,12.0,74,0.00,,,0.00,,2013-05-04 22:42:00,
2013-05-04 18:52:00,62.0,54.0,30.06,SE,139,6.0,12.0,74,0.00,,,0.00,,2013-05-04 22:52:00,
2013-05-04 19:02:00,61.0,54.0,30.07,NE,49,3.0,9.0,77,0.00,,,0.00,,2013-05-04 23:02:00,
2013-05-04 19:12:00,61.0,54.0,30.07,NE,49,3.0,9.0,77,0.00,,,0.00,,2013-05-04 23:12:00,
2013-05-04 19:22:00,60.0,53.0,30.07,ESE,122,1.0,9.0,79,0.00,,,0.00,,2013-05-04 23:22:00,
2013-05-04 19:32:00,60.0,54.0,30.07,East,86,3.0,8.0,80,0.00,,,0.00,,2013-05-04 23:32:00,
2013-05-04 19:42:00,60.0,54.0,30.07,East,86,3.0,8.0,80,0.00,,,0.00,,2013-05-04 23:42:00,
2013-05-04 19:52:00,59.0,53.0,30.07,East,99,4.0,10.0,81,0.00,,,0.00,,2013-05-04 23:52:00,
2013-05-04 20:02:00,59.0,54.0,30.08,ENE,70,4.0,7.0,82,0.00,,,0.00,,2013-05-05 00:02:00,
2013-05-04 20:11:00,59.0,54.0,30.08,ENE,70,4.0,7.0,82,0.00,,,0.00,,2013-05-05 00:11:00,
2013-05-04 20:22:00,58.0,53.0,30.08,NE,44,3.0,10.0,83,0.00,,,0.00,,2013-05-05 00:22:00,
2013-05-04 20:32:00,58.0,53.0,30.09,SE,144,1.0,10.0,83,0.00,,,0.00,,2013-05-05 00:32:00,
2013-05-04 20:42:00,58.0,53.0,30.09,SE,144,1.0,10.0,83,0.00,,,0.00,,2013-05-05 00:42:00,
2013-05-04 20:52:00,58.0,53.0,30.09,ESE,104,1.0,7.0,83,0.00,,,0.00,,2013-05-05 00:52:00,
2013-05-04 21:01:00,58.0,53.0,30.09,SE,139,2.0,11.0,83,0.00,,,0.00,,2013-05-05 01:01:00,
2013-05-04 21:11:00,58.0,53.0,30.09,SE,139,2.0,11.0,83,0.00,,,0.00,,2013-05-05 01:11:00,
2013-05-04 21:21:00,58.0,53.0,30.09,ENE,73,3.0,8.0,83,0.00,,,0.00,,2013-05-05 01:21:00,
2013-05-04 21:32:00,58.0,53.0,30.09,East,85,3.0,7.0,83,0.00,,,0.00,,2013-05-05 01:32:00,
2013-05-04 21:42:00,58.0,53.0,30.09,East,85,3.0,7.0,83,0.00,,,0.00,,2013-05-05 01:42:00,
2013-05-04 21:52:00,58.0,53.0,30.09,ENE,71,3.0,7.0,82,0.00,,,0.00,,2013-05-05 01:52:00,
2013-05-04 22:02:00,58.0,53.0,30.09,NW,321,3.0,11.0,82,0.00,,,0.00,,2013-05-05 02:02:00,
2013-05-04 22:12:00,58.0,53.0,30.09,NW,321,3.0,11.0,82,0.00,,,0.00,,2013-05-05 02:12:00,
2013-05-04 22:22:00,57.0,52.0,30.10,ENE,60,4.0,8.0,82,0.00,,,0.00,,2013-05-05 02:22:00,
2013-05-04 22:32:00,57.0,52.0,30.09,ENE,61,2.0,6.0,82,0.00,,,0.00,,2013-05-05 02:32:00,
2013-05-04 22:42:00,57.0,52.0,30.09,ENE,61,2.0,6.0,82,0.00,,,0.00,,2013-05-05 02:42:00,
2013-05-04 22:52:00,57.0,52.0,30.09,ENE,60,4.0,10.0,82,0.00,,,0.00,,2013-05-05 02:52:00,
2013-05-04 23:01:00,57.0,52.0,30.09,ENE,63,4.0,8.0,83,0.00,,,0.00,,2013-05-05 03:01:00,
2013-05-04 23:11:00,57.0,52.0,30.09,ENE,63,4.0,8.0,83,0.00,,,0.00,,2013-05-05 03:11:00,
2013-05-04 23:22:00,57.0,52.0,30.09,East,88,1.0,8.0,83,0.00,,,0.00,,2013-05-05 03:22:00,
2013-05-04 23:33:00,57.0,52.0,30.09,East,82,3.0,8.0,83,0.00,,,0.00,,2013-05-05 03:33:00,
2013-05-04 23:42:00,57.0,52.0,30.09,East,82,3.0,8.0,83,0.00,,,0.00,,2013-05-05 03:42:00,
2013-05-04 23:53:00,56.0,51.0,30.08,ESE,116,5.0,11.0,83,0.00,,,0.00,,2013-05-05 03:53:00,